date,time,SUV Intensity [MED/Hr],UV Index,Daily total [MED],Since Last [MED]
21/07/2023,23:59:13,0.000,0.0,7.644,7.644
22/07/2023,00:00:13,0.001,0.0,0.0,-7.644
22/07/2023,00:01:12,-0.001,0.0,0.0,0.0
22/07/2023,00:02:13,-0.000,0.0,0.0,0.0
22/07/2023,00:03:13,0.000,0.0,0.0,0.0
22/07/2023,00:04:14,0.000,0.0,0.0,0.0
22/07/2023,00:05:13,0.000,0.0,0.0,0.0
22/07/2023,00:06:12,0.000,0.0,0.0,0.0
22/07/2023,00:07:13,0.000,0.0,0.0,0.0
22/07/2023,00:08:13,-0.001,0.0,0.0,0.0
22/07/2023,00:09:13,0.000,0.0,0.0,0.0
22/07/2023,00:10:13,0.000,0.0,0.0,0.0
22/07/2023,00:11:13,0.001,0.0,0.0,0.0
22/07/2023,00:12:13,0.000,0.0,0.0,0.0
22/07/2023,00:13:13,0.000,0.0,0.0,0.0
22/07/2023,00:14:13,0.000,0.0,0.0,0.0
22/07/2023,00:15:13,0.001,0.0,0.0,0.0
22/07/2023,00:16:13,0.000,0.0,0.0,0.0
22/07/2023,00:17:12,0.000,0.0,0.0,0.0
22/07/2023,00:18:13,0.000,0.0,0.0,0.0
22/07/2023,00:19:13,-0.000,0.0,0.0,0.0
22/07/2023,00:20:12,0.000,0.0,0.0,0.0
22/07/2023,00:21:13,0.000,0.0,0.0,0.0
22/07/2023,00:22:13,0.000,0.0,0.0,0.0
22/07/2023,00:23:12,0.000,0.0,0.0,0.0
22/07/2023,00:24:13,-0.001,0.0,0.0,0.0
22/07/2023,00:25:13,0.000,0.0,0.0,0.0
22/07/2023,00:26:12,0.000,0.0,0.0,0.0
22/07/2023,00:27:12,-0.001,0.0,0.0,0.0
22/07/2023,00:28:13,0.000,0.0,0.0,0.0
22/07/2023,00:29:13,-0.001,0.0,0.0,0.0
22/07/2023,00:30:13,0.000,0.0,0.0,0.0
22/07/2023,00:31:13,0.000,0.0,0.0,0.0
22/07/2023,00:32:13,0.000,0.0,0.0,0.0
22/07/2023,00:33:13,-0.000,0.0,0.0,0.0
22/07/2023,00:34:12,0.000,0.0,0.0,0.0
22/07/2023,00:35:13,-0.000,0.0,0.0,0.0
22/07/2023,00:36:13,0.001,0.0,0.0,0.0
22/07/2023,00:37:13,0.000,0.0,0.0,0.0
22/07/2023,00:38:12,0.000,0.0,0.0,0.0
22/07/2023,00:39:13,0.000,0.0,0.0,0.0
22/07/2023,00:40:13,-0.001,0.0,0.0,0.0
22/07/2023,00:41:13,0.001,0.0,0.0,0.0
22/07/2023,00:42:13,-0.001,0.0,0.0,0.0
22/07/2023,00:43:13,0.000,0.0,0.0,0.0
22/07/2023,00:44:13,0.000,0.0,0.0,0.0
22/07/2023,00:45:13,0.000,0.0,0.0,0.0
22/07/2023,00:46:13,0.001,0.0,0.0,0.0
22/07/2023,00:47:12,0.000,0.0,0.0,0.0
22/07/2023,00:48:13,0.000,0.0,0.0,0.0
22/07/2023,00:49:13,-0.000,0.0,0.0,0.0
22/07/2023,00:50:13,0.001,0.0,0.0,0.0
22/07/2023,00:51:13,0.001,0.0,0.0,0.0
22/07/2023,00:52:13,0.001,0.0,0.0,0.0
22/07/2023,00:53:13,0.001,0.0,0.0,0.0
22/07/2023,00:54:13,0.000,0.0,0.0,0.0
22/07/2023,00:55:13,0.001,0.0,0.0,0.0
22/07/2023,00:56:13,0.001,0.0,0.0,0.0
22/07/2023,00:57:13,0.001,0.0,0.0,0.0
22/07/2023,00:58:13,0.000,0.0,0.0,0.0
22/07/2023,00:59:13,0.001,0.0,0.0,0.0
22/07/2023,01:00:13,0.000,0.0,0.0,0.0
22/07/2023,01:01:13,0.001,0.0,0.0,0.0
22/07/2023,01:02:13,0.001,0.0,0.0,0.0
22/07/2023,01:03:12,-0.000,0.0,0.0,0.0
22/07/2023,01:04:13,0.001,0.0,0.0,0.0
22/07/2023,01:05:12,0.001,0.0,0.0,0.0
22/07/2023,01:06:13,-0.001,0.0,0.0,0.0
22/07/2023,01:07:13,0.001,0.0,0.0,0.0
22/07/2023,01:08:13,0.001,0.0,0.0,0.0
22/07/2023,01:09:13,0.000,0.0,0.0,0.0
22/07/2023,01:10:13,0.001,0.0,0.0,0.0
22/07/2023,01:11:13,0.002,0.0,0.0,0.0
22/07/2023,01:12:13,0.001,0.0,0.0,0.0
22/07/2023,01:13:13,0.001,0.0,0.0,0.0
22/07/2023,01:14:13,0.001,0.0,0.0,0.0
22/07/2023,01:15:13,0.001,0.0,0.0,0.0
22/07/2023,01:16:13,0.000,0.0,0.0,0.0
22/07/2023,01:17:13,0.002,0.0,0.0,0.0
22/07/2023,01:18:13,0.000,0.0,0.0,0.0
22/07/2023,01:19:13,0.001,0.0,0.0,0.0
22/07/2023,01:20:13,0.001,0.0,0.0,0.0
22/07/2023,01:21:13,0.001,0.0,0.0,0.0
22/07/2023,01:22:13,0.000,0.0,0.0,0.0
22/07/2023,01:23:13,0.001,0.0,0.0,0.0
22/07/2023,01:24:13,0.000,0.0,0.0,0.0
22/07/2023,01:25:13,-0.000,0.0,0.0,0.0
22/07/2023,01:26:13,0.001,0.0,0.0,0.0
22/07/2023,01:27:12,0.002,0.0,0.0,0.0
22/07/2023,01:28:13,-0.001,0.0,0.0,0.0
22/07/2023,01:29:13,-0.001,0.0,0.0,0.0
22/07/2023,01:30:13,0.000,0.0,0.0,0.0
22/07/2023,01:31:13,0.001,0.0,0.0,0.0
22/07/2023,01:32:13,0.001,0.0,0.0,0.0
22/07/2023,01:33:13,0.001,0.0,0.0,0.0
22/07/2023,01:34:13,0.001,0.0,0.0,0.0
22/07/2023,01:35:13,0.000,0.0,0.0,0.0
22/07/2023,01:36:13,0.001,0.0,0.0,0.0
22/07/2023,01:37:13,0.001,0.0,0.0,0.0
22/07/2023,01:38:13,0.001,0.0,0.0,0.0
22/07/2023,01:39:13,0.001,0.0,0.0,0.0
22/07/2023,01:40:13,0.000,0.0,0.0,0.0
22/07/2023,01:41:13,0.000,0.0,0.0,0.0
22/07/2023,01:42:13,0.001,0.0,0.0,0.0
22/07/2023,01:43:13,0.000,0.0,0.0,0.0
22/07/2023,01:44:12,0.001,0.0,0.0,0.0
22/07/2023,01:45:13,0.001,0.0,0.0,0.0
22/07/2023,01:46:13,0.000,0.0,0.0,0.0
22/07/2023,01:47:13,0.001,0.0,0.0,0.0
22/07/2023,01:48:13,0.001,0.0,0.0,0.0
22/07/2023,01:49:13,0.001,0.0,0.0,0.0
22/07/2023,01:50:13,0.001,0.0,0.0,0.0
22/07/2023,01:51:13,0.001,0.0,0.0,0.0
22/07/2023,01:52:13,0.001,0.0,0.0,0.0
22/07/2023,01:53:13,0.000,0.0,0.0,0.0
22/07/2023,01:54:13,0.001,0.0,0.0,0.0
22/07/2023,01:55:13,0.000,0.0,0.0,0.0
22/07/2023,01:56:13,-0.000,0.0,0.0,0.0
22/07/2023,01:57:12,0.000,0.0,0.0,0.0
22/07/2023,01:58:13,0.001,0.0,0.0,0.0
22/07/2023,01:59:13,-0.000,0.0,0.0,0.0
22/07/2023,02:00:13,0.000,0.0,0.0,0.0
22/07/2023,02:01:13,0.001,0.0,0.0,0.0
22/07/2023,02:02:13,0.001,0.0,0.0,0.0
22/07/2023,02:03:13,0.000,0.0,0.0,0.0
22/07/2023,02:04:12,0.000,0.0,0.0,0.0
22/07/2023,02:05:13,0.000,0.0,0.0,0.0
22/07/2023,02:06:14,0.000,0.0,0.0,0.0
22/07/2023,02:07:13,0.000,0.0,0.0,0.0
22/07/2023,02:08:13,-0.000,0.0,0.0,0.0
22/07/2023,02:09:13,0.001,0.0,0.0,0.0
22/07/2023,02:10:13,0.001,0.0,0.0,0.0
22/07/2023,02:11:13,-0.001,0.0,0.0,0.0
22/07/2023,02:12:13,0.000,0.0,0.0,0.0
22/07/2023,02:13:12,-0.000,0.0,0.0,0.0
22/07/2023,02:14:13,0.001,0.0,0.0,0.0
22/07/2023,02:15:13,0.000,0.0,0.0,0.0
22/07/2023,02:16:13,-0.000,0.0,0.0,0.0
22/07/2023,02:17:12,0.001,0.0,0.0,0.0
22/07/2023,02:18:13,0.000,0.0,0.0,0.0
22/07/2023,02:19:13,0.001,0.0,0.0,0.0
22/07/2023,02:20:13,0.000,0.0,0.0,0.0
22/07/2023,02:21:13,0.000,0.0,0.0,0.0
22/07/2023,02:22:13,0.001,0.0,0.0,0.0
22/07/2023,02:23:13,0.000,0.0,0.0,0.0
22/07/2023,02:24:13,0.000,0.0,0.0,0.0
22/07/2023,02:25:13,0.000,0.0,0.0,0.0
22/07/2023,02:26:13,-0.001,0.0,0.0,0.0
22/07/2023,02:27:13,0.000,0.0,0.0,0.0
22/07/2023,02:28:13,0.000,0.0,0.0,0.0
22/07/2023,02:29:13,0.001,0.0,0.0,0.0
22/07/2023,02:30:13,0.000,0.0,0.0,0.0
22/07/2023,02:31:13,0.000,0.0,0.0,0.0
22/07/2023,02:32:13,0.000,0.0,0.0,0.0
22/07/2023,02:33:13,0.001,0.0,0.0,0.0
22/07/2023,02:34:13,0.000,0.0,0.0,0.0
22/07/2023,02:35:13,-0.001,0.0,0.0,0.0
22/07/2023,02:36:13,0.001,0.0,0.0,0.0
22/07/2023,02:37:13,0.000,0.0,0.0,0.0
22/07/2023,02:38:13,0.000,0.0,0.0,0.0
22/07/2023,02:39:13,0.000,0.0,0.0,0.0
22/07/2023,02:40:13,-0.000,0.0,0.0,0.0
22/07/2023,02:41:13,0.001,0.0,0.0,0.0
22/07/2023,02:42:13,0.000,0.0,0.0,0.0
22/07/2023,02:43:12,0.000,0.0,0.0,0.0
22/07/2023,02:44:13,0.001,0.0,0.0,0.0
22/07/2023,02:45:13,0.000,0.0,0.0,0.0
22/07/2023,02:46:13,0.000,0.0,0.0,0.0
22/07/2023,02:47:13,-0.001,0.0,0.0,0.0
22/07/2023,02:48:13,0.000,0.0,0.0,0.0
22/07/2023,02:49:13,0.000,0.0,0.0,0.0
22/07/2023,02:50:13,0.000,0.0,0.0,0.0
22/07/2023,02:51:13,-0.001,0.0,0.0,0.0
22/07/2023,02:52:13,0.000,0.0,0.0,0.0
22/07/2023,02:53:13,0.001,0.0,0.0,0.0
22/07/2023,02:54:13,-0.000,0.0,0.0,0.0
22/07/2023,02:55:13,0.000,0.0,0.0,0.0
22/07/2023,02:56:13,0.000,0.0,0.0,0.0
22/07/2023,02:57:13,0.000,0.0,0.0,0.0
22/07/2023,02:58:13,0.000,0.0,0.0,0.0
22/07/2023,02:59:13,0.000,0.0,0.0,0.0
22/07/2023,03:00:13,0.000,0.0,0.0,0.0
22/07/2023,03:01:13,0.001,0.0,0.0,0.0
22/07/2023,03:02:13,-0.001,0.0,0.0,0.0
22/07/2023,03:03:13,0.000,0.0,0.0,0.0
22/07/2023,03:04:13,0.000,0.0,0.0,0.0
22/07/2023,03:05:13,-0.001,0.0,0.0,0.0
22/07/2023,03:06:13,0.000,0.0,0.0,0.0
22/07/2023,03:07:13,0.000,0.0,0.0,0.0
22/07/2023,03:08:13,-0.001,0.0,0.0,0.0
22/07/2023,03:09:13,0.000,0.0,0.0,0.0
22/07/2023,03:10:13,0.000,0.0,0.0,0.0
22/07/2023,03:11:13,0.000,0.0,0.0,0.0
22/07/2023,03:12:13,0.000,0.0,0.0,0.0
22/07/2023,03:13:13,0.000,0.0,0.0,0.0
22/07/2023,03:14:13,-0.001,0.0,0.0,0.0
22/07/2023,03:15:14,0.001,0.0,0.0,0.0
22/07/2023,03:16:13,0.000,0.0,0.0,0.0
22/07/2023,03:17:13,0.000,0.0,0.0,0.0
22/07/2023,03:18:13,0.000,0.0,0.0,0.0
22/07/2023,03:19:13,-0.001,0.0,0.0,0.0
22/07/2023,03:20:13,0.000,0.0,0.0,0.0
22/07/2023,03:21:13,0.000,0.0,0.0,0.0
22/07/2023,03:22:13,0.000,0.0,0.0,0.0
22/07/2023,03:23:13,0.000,0.0,0.0,0.0
22/07/2023,03:24:13,0.001,0.0,0.0,0.0
22/07/2023,03:25:13,-0.000,0.0,0.0,0.0
22/07/2023,03:26:13,0.000,0.0,0.0,0.0
22/07/2023,03:27:13,-0.001,0.0,0.0,0.0
22/07/2023,03:28:13,0.000,0.0,0.0,0.0
22/07/2023,03:29:13,0.000,0.0,0.0,0.0
22/07/2023,03:30:13,0.000,0.0,0.0,0.0
22/07/2023,03:31:13,-0.001,0.0,0.0,0.0
22/07/2023,03:32:13,0.000,0.0,0.0,0.0
22/07/2023,03:33:14,0.000,0.0,0.0,0.0
22/07/2023,03:34:13,0.000,0.0,0.0,0.0
22/07/2023,03:35:13,-0.001,0.0,0.0,0.0
22/07/2023,03:36:13,0.000,0.0,0.0,0.0
22/07/2023,03:37:13,-0.001,0.0,0.0,0.0
22/07/2023,03:38:13,-0.000,0.0,0.0,0.0
22/07/2023,03:39:13,0.000,0.0,0.0,0.0
22/07/2023,03:40:13,-0.001,0.0,0.0,0.0
22/07/2023,03:41:13,0.000,0.0,0.0,0.0
22/07/2023,03:42:13,0.000,0.0,0.0,0.0
22/07/2023,03:43:14,0.000,0.0,0.0,0.0
22/07/2023,03:44:13,0.001,0.0,0.0,0.0
22/07/2023,03:45:13,0.000,0.0,0.0,0.0
22/07/2023,03:46:13,0.000,0.0,0.0,0.0
22/07/2023,03:47:13,0.000,0.0,0.0,0.0
22/07/2023,03:48:13,0.000,0.0,0.0,0.0
22/07/2023,03:49:13,0.001,0.0,0.0,0.0
22/07/2023,03:50:13,-0.000,0.0,0.0,0.0
22/07/2023,03:51:13,0.000,0.0,0.0,0.0
22/07/2023,03:52:14,0.000,0.0,0.0,0.0
22/07/2023,03:53:13,0.001,0.0,0.0,0.0
22/07/2023,03:54:13,0.001,0.0,0.0,0.0
22/07/2023,03:55:13,0.000,0.0,0.0,0.0
22/07/2023,03:56:14,0.001,0.0,0.0,0.0
22/07/2023,03:57:13,0.000,0.0,0.0,0.0
22/07/2023,03:58:13,0.000,0.0,0.0,0.0
22/07/2023,03:59:13,-0.000,0.0,0.0,0.0
22/07/2023,04:00:13,0.000,0.0,0.0,0.0
22/07/2023,04:01:13,0.000,0.0,0.0,0.0
22/07/2023,04:02:13,-0.001,0.0,0.0,0.0
22/07/2023,04:03:14,0.001,0.0,0.0,0.0
22/07/2023,04:04:13,0.001,0.0,0.0,0.0
22/07/2023,04:05:13,0.000,0.0,0.0,0.0
22/07/2023,04:06:13,0.001,0.0,0.0,0.0
22/07/2023,04:07:13,0.001,0.0,0.0,0.0
22/07/2023,04:08:14,-0.000,0.0,0.0,0.0
22/07/2023,04:09:14,0.001,0.0,0.0,0.0
22/07/2023,04:10:13,0.001,0.0,0.0,0.0
22/07/2023,04:11:13,0.002,0.0,0.0,0.0
22/07/2023,04:12:13,0.000,0.0,0.0,0.0
22/07/2023,04:13:13,0.001,0.0,0.0,0.0
22/07/2023,04:14:14,0.000,0.0,0.0,0.0
22/07/2023,04:15:13,0.001,0.0,0.0,0.0
22/07/2023,04:16:13,0.001,0.0,0.0,0.0
22/07/2023,04:17:14,0.001,0.0,0.0,0.0
22/07/2023,04:18:13,0.001,0.0,0.0,0.0
22/07/2023,04:19:13,0.002,0.0,0.0,0.0
22/07/2023,04:20:13,0.002,0.0,0.0,0.0
22/07/2023,04:21:13,0.002,0.0,0.0,0.0
22/07/2023,04:22:13,0.002,0.0,0.0,0.0
22/07/2023,04:23:13,0.002,0.0,0.0,0.0
22/07/2023,04:24:13,0.001,0.0,0.0,0.0
22/07/2023,04:25:13,0.001,0.0,0.0,0.0
22/07/2023,04:26:13,0.002,0.0,0.0,0.0
22/07/2023,04:27:14,0.001,0.0,0.0,0.0
22/07/2023,04:28:13,0.002,0.0,0.0,0.0
22/07/2023,04:29:13,0.003,0.0,0.0,0.0
22/07/2023,04:30:13,0.003,0.0,0.0,0.0
22/07/2023,04:31:13,0.003,0.0,0.0,0.0
22/07/2023,04:32:14,0.003,0.0,0.0,0.0
22/07/2023,04:33:13,0.003,0.0,0.0,0.0
22/07/2023,04:34:13,0.003,0.0,0.0,0.0
22/07/2023,04:35:13,0.003,0.0,0.0,0.0
22/07/2023,04:36:13,0.003,0.0,0.0,0.0
22/07/2023,04:37:13,0.003,0.0,0.0,0.0
22/07/2023,04:38:13,0.003,0.0,0.0,0.0
22/07/2023,04:39:14,0.004,0.0,0.0,0.0
22/07/2023,04:40:13,0.004,0.0,0.0,0.0
22/07/2023,04:41:13,0.004,0.0,0.0,0.0
22/07/2023,04:42:13,0.005,0.0,0.0,0.0
22/07/2023,04:43:13,0.004,0.0,0.0,0.0
22/07/2023,04:44:14,0.005,0.0,0.0,0.0
22/07/2023,04:45:13,0.004,0.0,0.0,0.0
22/07/2023,04:46:13,0.004,0.0,0.0,0.0
22/07/2023,04:47:13,0.004,0.0,0.0,0.0
22/07/2023,04:48:14,0.005,0.0,0.0,0.0
22/07/2023,04:49:14,0.007,0.0,0.0,0.0
22/07/2023,04:50:13,0.007,0.0,0.0,0.0
22/07/2023,04:51:14,0.008,0.0,0.0,0.0
22/07/2023,04:52:14,0.008,0.0,0.0,0.0
22/07/2023,04:53:13,0.008,0.0,0.001,0.001
22/07/2023,04:54:13,0.009,0.0,0.001,0.0
22/07/2023,04:55:13,0.008,0.0,0.001,0.0
22/07/2023,04:56:14,0.007,0.0,0.001,0.0
22/07/2023,04:57:13,0.008,0.0,0.001,0.0
22/07/2023,04:58:13,0.008,0.0,0.001,0.0
22/07/2023,04:59:14,0.009,0.0,0.001,0.0
22/07/2023,05:00:13,0.009,0.0,0.002,0.001
22/07/2023,05:01:13,0.009,0.0,0.002,0.0
22/07/2023,05:02:13,0.008,0.0,0.002,0.0
22/07/2023,05:03:14,0.009,0.0,0.002,0.0
22/07/2023,05:04:13,0.009,0.0,0.002,0.0
22/07/2023,05:05:13,0.009,0.0,0.002,0.0
22/07/2023,05:06:14,0.010,0.0,0.002,0.0
22/07/2023,05:07:13,0.009,0.0,0.003,0.001
22/07/2023,05:08:12,0.010,0.0,0.003,0.0
22/07/2023,05:09:13,0.010,0.0,0.003,0.0
22/07/2023,05:10:13,0.012,0.0,0.003,0.0
22/07/2023,05:11:13,0.012,0.0,0.003,0.0
22/07/2023,05:12:12,0.012,0.0,0.003,0.0
22/07/2023,05:13:14,0.013,0.0,0.004,0.001
22/07/2023,05:14:14,0.014,0.0,0.004,0.0
22/07/2023,05:15:13,0.014,0.0,0.004,0.0
22/07/2023,05:16:13,0.014,0.0,0.004,0.0
22/07/2023,05:17:14,0.015,0.0,0.005,0.001
22/07/2023,05:18:13,0.016,0.0,0.005,0.0
22/07/2023,05:19:13,0.015,0.0,0.005,0.0
22/07/2023,05:20:13,0.014,0.0,0.005,0.0
22/07/2023,05:21:14,0.015,0.0,0.006,0.001
22/07/2023,05:22:13,0.014,0.0,0.006,0.0
22/07/2023,05:23:13,0.015,0.0,0.006,0.0
22/07/2023,05:24:13,0.016,0.0,0.006,0.0
22/07/2023,05:25:13,0.016,0.0,0.007,0.001
22/07/2023,05:26:13,0.017,0.0,0.007,0.0
22/07/2023,05:27:14,0.017,0.0,0.007,0.0
22/07/2023,05:28:13,0.018,0.0,0.007,0.0
22/07/2023,05:29:13,0.019,0.0,0.008,0.001
22/07/2023,05:30:14,0.020,0.0,0.008,0.0
22/07/2023,05:31:13,0.022,0.0,0.008,0.0
22/07/2023,05:32:13,0.024,0.0,0.009,0.001
22/07/2023,05:33:13,0.024,0.0,0.009,0.0
22/07/2023,05:34:13,0.025,0.0,0.01,0.001
22/07/2023,05:35:14,0.026,0.0,0.01,0.0
22/07/2023,05:36:13,0.026,0.0,0.01,0.0
22/07/2023,05:37:13,0.027,0.0,0.011,0.001
22/07/2023,05:38:13,0.030,0.0,0.011,0.0
22/07/2023,05:39:13,0.031,0.0,0.012,0.001
22/07/2023,05:40:14,0.033,0.0,0.012,0.0
22/07/2023,05:41:13,0.033,0.0,0.013,0.001
22/07/2023,05:42:14,0.034,0.0,0.013,0.0
22/07/2023,05:43:13,0.037,0.0,0.014,0.001
22/07/2023,05:44:13,0.040,0.0,0.015,0.001
22/07/2023,05:45:13,0.043,0.0,0.015,0.0
22/07/2023,05:46:14,0.048,0.0,0.016,0.001
22/07/2023,05:47:13,0.051,0.0,0.017,0.001
22/07/2023,05:48:13,0.054,0.0,0.018,0.001
22/07/2023,05:49:13,0.058,0.0,0.019,0.001
22/07/2023,05:50:13,0.059,0.0,0.02,0.001
22/07/2023,05:51:14,0.063,0.0,0.021,0.001
22/07/2023,05:52:13,0.065,0.0,0.022,0.001
22/07/2023,05:53:14,0.065,0.0,0.023,0.001
22/07/2023,05:54:13,0.065,0.0,0.024,0.001
22/07/2023,05:55:14,0.063,0.0,0.025,0.001
22/07/2023,05:56:13,0.064,0.0,0.026,0.001
22/07/2023,05:57:13,0.064,0.0,0.027,0.001
22/07/2023,05:58:14,0.064,0.0,0.028,0.001
22/07/2023,05:59:13,0.063,0.0,0.029,0.001
22/07/2023,06:00:14,0.063,0.0,0.03,0.001
22/07/2023,06:01:13,0.062,0.0,0.031,0.001
22/07/2023,06:02:13,0.063,0.0,0.032,0.001
22/07/2023,06:03:13,0.063,0.0,0.034,0.002
22/07/2023,06:04:14,0.064,0.0,0.035,0.001
22/07/2023,06:05:13,0.068,0.0,0.036,0.001
22/07/2023,06:06:14,0.069,0.0,0.037,0.001
22/07/2023,06:07:13,0.071,0.0,0.038,0.001
22/07/2023,06:08:13,0.074,0.0,0.039,0.001
22/07/2023,06:09:14,0.076,0.0,0.041,0.002
22/07/2023,06:10:13,0.078,0.0,0.042,0.001
22/07/2023,06:11:13,0.079,0.0,0.043,0.001
22/07/2023,06:12:13,0.082,0.0,0.044,0.001
22/07/2023,06:13:13,0.083,0.0,0.046,0.002
22/07/2023,06:14:13,0.085,0.0,0.047,0.001
22/07/2023,06:15:14,0.086,0.0,0.049,0.002
22/07/2023,06:16:13,0.088,0.0,0.05,0.001
22/07/2023,06:17:13,0.090,0.0,0.052,0.002
22/07/2023,06:18:13,0.089,0.0,0.053,0.001
22/07/2023,06:19:13,0.090,0.0,0.055,0.002
22/07/2023,06:20:14,0.088,0.0,0.056,0.001
22/07/2023,06:21:13,0.088,0.0,0.057,0.001
22/07/2023,06:22:14,0.089,0.0,0.059,0.002
22/07/2023,06:23:13,0.091,0.0,0.06,0.001
22/07/2023,06:24:13,0.093,0.0,0.062,0.002
22/07/2023,06:25:13,0.097,0.0,0.064,0.002
22/07/2023,06:26:13,0.100,0.0,0.065,0.001
22/07/2023,06:27:13,0.104,0.0,0.067,0.002
22/07/2023,06:28:14,0.106,0.0,0.069,0.002
22/07/2023,06:29:13,0.108,0.0,0.07,0.001
22/07/2023,06:30:13,0.109,0.0,0.072,0.002
22/07/2023,06:31:14,0.112,0.0,0.074,0.002
22/07/2023,06:32:13,0.115,0.0,0.076,0.002
22/07/2023,06:33:13,0.117,0.0,0.078,0.002
22/07/2023,06:34:13,0.120,0.0,0.08,0.002
22/07/2023,06:35:13,0.121,0.0,0.082,0.002
22/07/2023,06:36:13,0.123,0.0,0.084,0.002
22/07/2023,06:37:14,0.125,0.0,0.086,0.002
22/07/2023,06:38:14,0.126,0.0,0.088,0.002
22/07/2023,06:39:13,0.129,0.0,0.09,0.002
22/07/2023,06:40:14,0.130,0.0,0.092,0.002
22/07/2023,06:41:13,0.132,0.0,0.095,0.003
22/07/2023,06:42:13,0.132,0.0,0.097,0.002
22/07/2023,06:43:13,0.130,0.0,0.099,0.002
22/07/2023,06:44:14,0.127,0.0,0.101,0.002
22/07/2023,06:45:13,0.124,0.0,0.103,0.002
22/07/2023,06:46:13,0.124,0.0,0.105,0.002
22/07/2023,06:47:13,0.125,0.0,0.107,0.002
22/07/2023,06:48:14,0.125,0.0,0.109,0.002
22/07/2023,06:49:13,0.126,0.0,0.112,0.003
22/07/2023,06:50:14,0.126,0.0,0.114,0.002
22/07/2023,06:51:13,0.126,0.0,0.116,0.002
22/07/2023,06:52:13,0.128,0.0,0.118,0.002
22/07/2023,06:53:14,0.132,0.0,0.12,0.002
22/07/2023,06:54:13,0.139,0.0,0.122,0.002
22/07/2023,06:55:14,0.146,0.0,0.125,0.003
22/07/2023,06:56:13,0.154,0.0,0.127,0.002
22/07/2023,06:57:13,0.160,0.0,0.13,0.003
22/07/2023,06:58:13,0.162,0.0,0.132,0.002
22/07/2023,06:59:14,0.164,0.0,0.135,0.003
22/07/2023,07:00:13,0.161,0.0,0.138,0.003
22/07/2023,07:01:13,0.160,0.0,0.14,0.002
22/07/2023,07:02:14,0.156,0.0,0.143,0.003
22/07/2023,07:03:13,0.155,0.0,0.146,0.003
22/07/2023,07:04:13,0.154,0.0,0.148,0.002
22/07/2023,07:05:13,0.156,0.0,0.151,0.003
22/07/2023,07:06:14,0.156,0.0,0.154,0.003
22/07/2023,07:07:14,0.155,0.0,0.156,0.002
22/07/2023,07:08:13,0.156,0.0,0.159,0.003
22/07/2023,07:09:14,0.155,0.0,0.161,0.002
22/07/2023,07:10:13,0.155,0.0,0.164,0.003
22/07/2023,07:11:14,0.153,0.0,0.167,0.003
22/07/2023,07:12:13,0.153,0.0,0.169,0.002
22/07/2023,07:13:14,0.154,0.0,0.172,0.003
22/07/2023,07:14:13,0.154,0.0,0.174,0.002
22/07/2023,07:15:14,0.157,0.0,0.177,0.003
22/07/2023,07:16:13,0.161,0.0,0.179,0.002
22/07/2023,07:17:13,0.166,0.0,0.182,0.003
22/07/2023,07:18:13,0.174,0.0,0.185,0.003
22/07/2023,07:19:14,0.183,0.0,0.188,0.003
22/07/2023,07:20:14,0.191,0.0,0.191,0.003
22/07/2023,07:21:13,0.199,0.0,0.194,0.003
22/07/2023,07:22:14,0.212,0.0,0.198,0.004
22/07/2023,07:23:14,0.226,1.0,0.201,0.003
22/07/2023,07:24:14,0.242,1.0,0.205,0.004
22/07/2023,07:25:13,0.256,1.0,0.209,0.004
22/07/2023,07:26:14,0.265,1.0,0.214,0.005
22/07/2023,07:27:14,0.272,1.0,0.218,0.004
22/07/2023,07:28:14,0.275,1.0,0.223,0.005
22/07/2023,07:29:13,0.275,1.0,0.227,0.004
22/07/2023,07:30:14,0.274,1.0,0.232,0.005
22/07/2023,07:31:15,0.275,1.0,0.237,0.005
22/07/2023,07:32:13,0.275,1.0,0.241,0.004
22/07/2023,07:33:14,0.274,1.0,0.246,0.005
22/07/2023,07:34:14,0.273,1.0,0.25,0.004
22/07/2023,07:35:13,0.273,1.0,0.255,0.005
22/07/2023,07:36:14,0.274,1.0,0.26,0.005
22/07/2023,07:37:13,0.278,1.0,0.264,0.004
22/07/2023,07:38:14,0.280,1.0,0.269,0.005
22/07/2023,07:39:13,0.281,1.0,0.273,0.004
22/07/2023,07:40:14,0.279,1.0,0.278,0.005
22/07/2023,07:41:13,0.280,1.0,0.283,0.005
22/07/2023,07:42:13,0.281,1.0,0.287,0.004
22/07/2023,07:43:14,0.284,1.0,0.292,0.005
22/07/2023,07:44:14,0.287,1.0,0.297,0.005
22/07/2023,07:45:14,0.288,1.0,0.302,0.005
22/07/2023,07:46:13,0.290,1.0,0.307,0.005
22/07/2023,07:47:14,0.290,1.0,0.311,0.004
22/07/2023,07:48:13,0.291,1.0,0.316,0.005
22/07/2023,07:49:14,0.289,1.0,0.321,0.005
22/07/2023,07:50:13,0.286,1.0,0.326,0.005
22/07/2023,07:51:14,0.282,1.0,0.331,0.005
22/07/2023,07:52:14,0.276,1.0,0.335,0.004
22/07/2023,07:53:14,0.274,1.0,0.34,0.005
22/07/2023,07:54:13,0.271,1.0,0.344,0.004
22/07/2023,07:55:14,0.267,1.0,0.349,0.005
22/07/2023,07:56:13,0.261,1.0,0.353,0.004
22/07/2023,07:57:13,0.257,1.0,0.358,0.005
22/07/2023,07:58:13,0.255,1.0,0.362,0.004
22/07/2023,07:59:13,0.256,1.0,0.366,0.004
22/07/2023,08:00:13,0.258,1.0,0.37,0.004
22/07/2023,08:01:14,0.262,1.0,0.375,0.005
22/07/2023,08:02:13,0.268,1.0,0.379,0.004
22/07/2023,08:03:14,0.270,1.0,0.384,0.005
22/07/2023,08:04:13,0.268,1.0,0.388,0.004
22/07/2023,08:05:13,0.263,1.0,0.392,0.004
22/07/2023,08:06:13,0.257,1.0,0.397,0.005
22/07/2023,08:07:14,0.248,1.0,0.401,0.004
22/07/2023,08:08:13,0.244,1.0,0.405,0.004
22/07/2023,08:09:13,0.242,1.0,0.409,0.004
22/07/2023,08:10:14,0.244,1.0,0.413,0.004
22/07/2023,08:11:14,0.247,1.0,0.417,0.004
22/07/2023,08:12:14,0.252,1.0,0.422,0.005
22/07/2023,08:13:13,0.257,1.0,0.426,0.004
22/07/2023,08:14:14,0.260,1.0,0.43,0.004
22/07/2023,08:15:13,0.264,1.0,0.434,0.004
22/07/2023,08:16:13,0.265,1.0,0.439,0.005
22/07/2023,08:17:14,0.271,1.0,0.443,0.004
22/07/2023,08:18:14,0.275,1.0,0.448,0.005
22/07/2023,08:19:14,0.280,1.0,0.452,0.004
22/07/2023,08:20:13,0.282,1.0,0.457,0.005
22/07/2023,08:21:14,0.277,1.0,0.462,0.005
22/07/2023,08:22:14,0.269,1.0,0.466,0.004
22/07/2023,08:23:13,0.267,1.0,0.471,0.005
22/07/2023,08:24:14,0.269,1.0,0.475,0.004
22/07/2023,08:25:13,0.281,1.0,0.48,0.005
22/07/2023,08:26:14,0.295,1.0,0.485,0.005
22/07/2023,08:27:14,0.307,1.0,0.49,0.005
22/07/2023,08:28:14,0.308,1.0,0.495,0.005
22/07/2023,08:29:13,0.297,1.0,0.5,0.005
22/07/2023,08:30:13,0.295,1.0,0.505,0.005
22/07/2023,08:31:35,0.311,1.0,0.512,0.007
22/07/2023,08:33:14,0.293,1.0,0.52,0.008
22/07/2023,08:34:14,0.272,1.0,0.525,0.005
22/07/2023,08:35:13,0.262,1.0,0.529,0.004
22/07/2023,08:36:14,0.280,1.0,0.534,0.005
22/07/2023,08:37:14,0.283,1.0,0.538,0.004
22/07/2023,08:38:13,0.266,1.0,0.543,0.005
22/07/2023,08:39:13,0.261,1.0,0.547,0.004
22/07/2023,08:40:13,0.251,1.0,0.552,0.005
22/07/2023,08:41:14,0.245,1.0,0.556,0.004
22/07/2023,08:42:14,0.252,1.0,0.56,0.004
22/07/2023,08:43:13,0.270,1.0,0.564,0.004
22/07/2023,08:44:13,0.276,1.0,0.569,0.005
22/07/2023,08:45:14,0.275,1.0,0.573,0.004
22/07/2023,08:46:14,0.300,1.0,0.578,0.005
22/07/2023,08:47:13,0.334,1.0,0.583,0.005
22/07/2023,08:48:14,0.353,1.0,0.589,0.006
22/07/2023,08:49:13,0.348,1.0,0.595,0.006
22/07/2023,08:50:14,0.338,1.0,0.601,0.006
22/07/2023,08:51:14,0.328,1.0,0.606,0.005
22/07/2023,08:52:14,0.322,1.0,0.612,0.006
22/07/2023,08:53:14,0.326,1.0,0.617,0.005
22/07/2023,08:54:13,0.339,1.0,0.623,0.006
22/07/2023,08:55:14,0.338,1.0,0.628,0.005
22/07/2023,08:56:14,0.340,1.0,0.634,0.006
22/07/2023,08:57:13,0.339,1.0,0.639,0.005
22/07/2023,08:58:13,0.349,1.0,0.645,0.006
22/07/2023,08:59:14,0.342,1.0,0.651,0.006
22/07/2023,09:00:14,0.332,1.0,0.657,0.006
22/07/2023,09:01:13,0.327,1.0,0.662,0.005
22/07/2023,09:02:14,0.320,1.0,0.668,0.006
22/07/2023,09:03:13,0.317,1.0,0.673,0.005
22/07/2023,09:04:14,0.326,1.0,0.678,0.005
22/07/2023,09:05:14,0.354,1.0,0.684,0.006
22/07/2023,09:06:14,0.375,1.0,0.69,0.006
22/07/2023,09:07:13,0.380,1.0,0.696,0.006
22/07/2023,09:08:13,0.401,1.0,0.703,0.007
22/07/2023,09:09:14,0.388,1.0,0.709,0.006
22/07/2023,09:10:14,0.375,1.0,0.716,0.007
22/07/2023,09:11:13,0.379,1.0,0.722,0.006
22/07/2023,09:12:14,0.395,1.0,0.728,0.006
22/07/2023,09:13:13,0.410,1.0,0.735,0.007
22/07/2023,09:14:14,0.418,1.0,0.742,0.007
22/07/2023,09:15:14,0.421,1.0,0.749,0.007
22/07/2023,09:16:13,0.391,1.0,0.756,0.007
22/07/2023,09:17:14,0.391,1.0,0.762,0.006
22/07/2023,09:18:15,0.418,1.0,0.769,0.007
22/07/2023,09:19:14,0.409,1.0,0.776,0.007
22/07/2023,09:20:13,0.403,1.0,0.783,0.007
22/07/2023,09:21:14,0.397,1.0,0.789,0.006
22/07/2023,09:22:14,0.403,1.0,0.796,0.007
22/07/2023,09:23:13,0.408,1.0,0.803,0.007
22/07/2023,09:24:14,0.426,1.0,0.81,0.007
22/07/2023,09:25:14,0.417,1.0,0.817,0.007
22/07/2023,09:26:13,0.408,1.0,0.824,0.007
22/07/2023,09:27:14,0.396,1.0,0.83,0.006
22/07/2023,09:28:14,0.370,1.0,0.837,0.007
22/07/2023,09:29:13,0.353,1.0,0.843,0.006
22/07/2023,09:30:14,0.317,1.0,0.848,0.005
22/07/2023,09:31:13,0.335,1.0,0.854,0.006
22/07/2023,09:32:14,0.312,1.0,0.859,0.005
22/07/2023,09:33:14,0.276,1.0,0.864,0.005
22/07/2023,09:34:14,0.276,1.0,0.869,0.005
22/07/2023,09:35:14,0.270,1.0,0.873,0.004
22/07/2023,09:36:14,0.232,1.0,0.877,0.004
22/07/2023,09:37:14,0.253,1.0,0.881,0.004
22/07/2023,09:38:13,0.272,1.0,0.886,0.005
22/07/2023,09:39:14,0.312,1.0,0.891,0.005
22/07/2023,09:40:13,0.327,1.0,0.896,0.005
22/07/2023,09:41:14,0.282,1.0,0.901,0.005
22/07/2023,09:42:13,0.277,1.0,0.906,0.005
22/07/2023,09:43:14,0.272,1.0,0.91,0.004
22/07/2023,09:44:14,0.292,1.0,0.915,0.005
22/07/2023,09:45:13,0.311,1.0,0.92,0.005
22/07/2023,09:46:14,0.338,1.0,0.925,0.005
22/07/2023,09:47:13,0.331,1.0,0.931,0.006
22/07/2023,09:48:14,0.333,1.0,0.937,0.006
22/07/2023,09:49:13,0.321,1.0,0.942,0.005
22/07/2023,09:50:14,0.325,1.0,0.947,0.005
22/07/2023,09:51:13,0.316,1.0,0.953,0.006
22/07/2023,09:52:14,0.334,1.0,0.958,0.005
22/07/2023,09:53:13,0.366,1.0,0.964,0.006
22/07/2023,09:54:14,0.396,1.0,0.97,0.006
22/07/2023,09:55:13,0.469,1.0,0.978,0.008
22/07/2023,09:56:13,0.479,1.0,0.986,0.008
22/07/2023,09:57:14,0.498,1.0,0.994,0.008